Content
SEND FEEDBACK

Daily
Averages
Monthly
Summary
Canada

QUEBEC CITY, QUEBEC


Home > North America > Canada > Quebec
Elevation: 239 feet     Latitude: 46 48N     Longitude: 071 23W

WEATHER
 
SELECT A DAY
Number of Records: 192,519;   Date Range: 6/30/96 - 8/26/14
 
SHARE

PRINT THIS DATA

[ ← Previous Day ]
WEATHER ALMANAC - JUNE 19, 2013
[ Next Day → ]
[ °C ]   °F
Weather ElementAverageHighLow
Temperature58.5 °F71.6 °F (3:00 pm)41 °F (5:00 am)
Dewpoint43.4 °F50 °F (11:00 am)39.2 °F (5:00 am)
Humidity58.9 %94 % (5:00 am)24 % (5:00 pm)
Barometer30.05 in30.12 in (11:00 pm)30.00 in (2:00 am)
Wind Speed6.2 mph11.5 mph (5:00 pm)
Weather ElementAverage
Visibility27.2 mi
Wind DirectionWSW (246.8 °)

Weather ElementTotal
Precipitation---
Heating Degree Days8.7 (Base 65)
Growing Degree Days6.3 (Base 50)
Averaged from 31 records on June 19, 2013
WEATHER CONDITIONS BREAKOUT
WIND DIRECTION BREAKOUT
WEATHER BY HOUR - JUNE 19, 2013
[ °C ]   °F
Local TimeTemperatureDewpointHumidityBarometerVisibilityWind DirectionWind SpeedGust SpeedPrecipitationEventsConditions
1:00 AM46.4 °F42.8 °F87 %30.01 in15.0 miNW (320°)6.9 mphPartly Cloudy
2:00 AM44.0 °F42.0 °F91 %30.00 inWest (280°)2.3 mph
2:00 AM44.6 °F41.0 °F87 %30.02 in15.0 miCalmPartly Cloudy
3:00 AM44.6 °F41.0 °F87 %30.03 in15.0 miNW (320°)6.9 mphPartly Cloudy
4:00 AM44.6 °F41.0 °F87 %30.03 in15.0 miNW (320°)6.9 mphPartly Cloudy
5:00 AM41.0 °F40.0 °F94 %30.03 inEast (90°)2.3 mph
5:00 AM44.6 °F39.2 °F81 %30.04 in30.0 miEast (100°)3.5 mphPartly Cloudy
6:00 AM46.4 °F41.0 °F81 %30.06 in25.0 miNE (40°)4.6 mphPartly Cloudy
7:00 AM50.0 °F42.8 °F76 %30.07 in30.0 miWNW (290°)6.9 mphPartly Cloudy
8:00 AM54.0 °F43.0 °F57 %30.05 inNNW (330°)4.6 mph
8:00 AM53.6 °F41.0 °F62 %30.08 in30.0 miNNW (340°)5.8 mphPartly Cloudy
9:00 AM57.2 °F44.6 °F63 %30.08 in30.0 miWSW (240°)4.6 mphPartly Cloudy
10:00 AM60.8 °F44.6 °F55 %30.08 in30.0 miSW (220°)4.6 mphPartly Cloudy
11:00 AM62.0 °F48.0 °F51 %30.05 inSouth (190°)6.9 mph
11:00 AM62.6 °F50.0 °F63 %30.07 in30.0 miSSW (200°)9.2 mphPartly Cloudy
12:00 PM64.4 °F48.2 °F56 %30.06 in30.0 miSSW (200°)5.8 mphScattered Clouds
1:00 PM68.0 °F44.6 °F43 %30.05 in30.0 miWNW (300°)8.1 mphScattered Clouds
2:00 PM70.0 °F44.0 °F28 %30.02 inNW (320°)3.5 mph
2:00 PM69.8 °F44.6 °F40 %30.04 in30.0 miWest (260°)10.4 mphPartly Cloudy
3:00 PM71.6 °F42.8 °F35 %30.04 in30.0 miNNW (340°)10.4 mphScattered Clouds
4:00 PM71.6 °F44.6 °F38 %30.03 in30.0 miWest (260°)8.1 mphPartly Cloudy
5:00 PM70.0 °F41.0 °F24 %30.01 inWNW (300°)9.2 mph
5:00 PM71.6 °F41.0 °F33 %30.04 in30.0 miWest (270°)11.5 mphPartly Cloudy
6:00 PM71.6 °F44.6 °F38 %30.04 in30.0 miSW (220°)8.1 mphPartly Cloudy
7:00 PM69.8 °F42.8 °F38 %30.05 in30.0 miWest (270°)8.1 mphPartly Cloudy
8:00 PM65.0 °F47.0 °F41 %30.04 inWNW (290°)4.6 mph
8:00 PM66.2 °F42.8 °F43 %30.06 in30.0 miWNW (290°)4.6 mphPartly Cloudy
9:00 PM60.8 °F41.0 °F48 %30.07 in30.0 miWest (260°)5.8 mphPartly Cloudy
10:00 PM57.2 °F42.8 °F59 %30.10 in30.0 miSW (230°)6.9 mphPartly Cloudy
11:00 PM51.0 °F45.0 °F74 %30.09 inNNW (330°)2.3 mph
11:00 PM57.2 °F46.4 °F67 %30.12 in30.0 miSW (230°)9.2 mphClear
Hourly data recorded from CYQB, located miles away from Quebec City, Quebec







STORIES FROM OUR PARTNERS